Regional Weather Roundup
Issued by NWS

Home | Current Version | Previous Version | Text Only | Print | Product List | Glossary Off
Versions: 1 2 3 4 5 6 7 8 9 10 11 12 13 14 15 16 17 18 19 20 21 22 23 24 25 26 27 28 29 30 31 32 33 34 35 36 37 38 39 40 41 42 43 44 45 46 47 48 49 50

000
ASUS45 KCYS 201710
RWRWY

WYOMING REGIONAL WEATHER ROUNDUP
NATIONAL WEATHER SERVICE CHEYENNE WY
1100 AM MDT MON APR 20 2015

NOTE:  "FAIR" INDICATES FEW OR NO CLOUDS BELOW 12,000 FEET
WITH NO SIGNIFICANT WEATHER AND/OR OBSTRUCTIONS TO VISIBILITY.

WYZ001-201800-
YELLOWSTONE NATIONAL PARK

CITY           SKY/WX    TMP DP  RH WIND       PRES   REMARKS
LK YELLOWSTONE   N/A     35  21  56 VRB7      30.04F WCI  29
W YELLOWSTONE  NOT AVBL

$$
WYZ002>013-054>058-071-098>099-201800-
NORTHERN WYOMING

CITY           SKY/WX    TMP DP  RH WIND       PRES   REMARKS
JACKSON        SUNNY     46  25  42 CALM      30.01S
CODY           FAIR      45  27  49 NE8       29.99S
GREYBULL       FAIR      49  18  29 VRB3      29.99F
WORLAND        FAIR      49  20  31 VRB3      29.99F
SHERIDAN       FAIR      50  23  34 N16       29.96F
BUFFALO        FAIR      48  19  31 N21       29.96S
GILLETTE       FAIR      46  18  32 NW18G26   29.94F
HULETT         PTSUNNY   43  18  36 W8G22     29.95F
NEWCASTLE      FAIR      43  19  39 NW17G26   29.95F

$$
WYZ014>020-022>026-101>103-201800-
CENTRAL WYOMING

CITY           SKY/WX    TMP DP  RH WIND       PRES   REMARKS
BIG PINEY      FAIR      45  24  43 CALM      30.01F
PINEDALE       FAIR      43  21  42 SW3       30.01F
DUBOIS         FAIR      46  12  25 NW10G21   29.96F
LANDER         FAIR      46  28  49 SE3       29.98F
RIVERTON       FAIR      44  25  47 CALM      30.00F
CASPER         FAIR      45  25  45 W12       29.99F
DOUGLAS        PTSUNNY   46  23  40 NW14G25   29.98F

$$
WYZ021-027>030-104>119-201800-
SOUTHERN WYOMING

CITY           SKY/WX    TMP DP  RH WIND       PRES   REMARKS
EVANSTON       FAIR      50  24  36 VRB7      30.01F
KEMMERER       FAIR      48  28  46 W5        30.02S
FORT BRIDGER   SUNNY     48  30  49 SW5       30.04S
ROCK SPRINGS   FAIR      40  34  79 SW7       30.03S
DIXON          PTSUNNY   43  32  64 W6        30.04F
RAWLINS        CLOUDY    34  32  92 CALM      30.02F FOG
SARATOGA       PTSUNNY   32  28  86 CALM      30.04S
LARAMIE        FOG       25  24  96 S6        29.99F VSB 1/2 WCI  18
CHEYENNE       FAIR      42  23  46 NW14G24   29.98F
TORRINGTON     FAIR      49  25  39 W15G24    29.97F
PINE BLUFFS    FAIR      45  23  42 MISG      29.99F

$$


USA.gov is the U.S. government's official web portal to all federal, state and local government web resources and services.